Terminal Aerodrome Forecast
Issued by NWS

Current Version | Previous Version | Graphics & Text | Print | Product List | Glossary On
Versions: 1 2 3 4 5 6 7 8 9 10 11 12 13 14 15 16 17 18 19 20 21 22 23 24 25
000
FTUS41 KRLX 191100
TAFCKB
TAF
KCKB 191131Z 1912/2012 31006KT P6SM SCT025 BKN045
     FM191300 29006KT P6SM SCT015
     FM191800 25004KT P6SM SKC=

USA.gov is the U.S. government's official web portal to all federal, state and local government web resources and services.